When you browse on this site, cookies collect data to enhance your experience and personalize the content and advertising you see.
Visit our Privacy Policy to learn more. By continuing to use the site, you agree to this use of cookies and data.

Hourly Weather Brisbane

Today, 15 August, Saturday

Time Temperature Precipitation Wind Pressure Humidity
00:00 +18°C° 0.4 mm 3 mps 758 mmHg 87%
01:00 +18°C° 0.4 mm 3 mps 758 mmHg 89%
02:00 +18°C° 0.9 mm 3 mps 758 mmHg 89%
03:00 +18°C° 0.9 mm 3 mps 758 mmHg 89%
04:00 +18°C° 0 mm 2 mps 758 mmHg 89%
05:00 +19°C° 1.2 mm 1 mps 758 mmHg 90%
06:00 +19°C° 1.2 mm 1 mps 758 mmHg 90%
07:00 +17°C° 1.2 mm 0 mps 758 mmHg 91%
08:00 +19°C° 1 mm 1 mps 758 mmHg 88%
09:00 +19°C° 1 mm 3 mps 758 mmHg 85%
10:00 +19°C° 1 mm 4 mps 758 mmHg 82%
11:00 +21°C° 0.6 mm 4 mps 757 mmHg 75%
12:00 +22°C° 0.6 mm 4 mps 757 mmHg 68%
13:00 +23°C° 0.6 mm 5 mps 756 mmHg 61%
14:00 +23°C° 0.3 mm 4 mps 755 mmHg 60%
15:00 +23°C° 0.3 mm 4 mps 755 mmHg 58%
16:00 +24°C° 0.3 mm 3 mps 754 mmHg 56%
17:00 +21°C° 0.1 mm 3 mps 755 mmHg 59%
18:00 +20°C° 0.1 mm 3 mps 756 mmHg 62%
19:00 +18°C° 0.1 mm 3 mps 756 mmHg 65%
20:00 +18°C° 0 mm 3 mps 756 mmHg 66%
21:00 +17°C° 0 mm 4 mps 757 mmHg 67%
22:00 +15°C° 0 mm 4 mps 757 mmHg 68%
23:00 +15°C° 0 mm 4 mps 757 mmHg 68%

Tomorrow, 16 August, Sunday

Time Temperature Precipitation Wind Pressure Humidity
00:00 +14°C° 0 mm 4 mps 757 mmHg 69%
01:00 +14°C° 0 mm 4 mps 757 mmHg 70%
02:00 +13°C° 0 mm 4 mps 757 mmHg 71%
03:00 +13°C° 0 mm 4 mps 757 mmHg 71%
04:00 +13°C° 0 mm 3 mps 757 mmHg 72%
05:00 +13°C° 0 mm 4 mps 757 mmHg 72%
06:00 +13°C° 0 mm 4 mps 757 mmHg 71%
07:00 +13°C° 0 mm 4 mps 758 mmHg 71%
08:00 +15°C° 0 mm 4 mps 758 mmHg 64%
09:00 +16°C° 0 mm 5 mps 758 mmHg 56%
10:00 +19°C° 0 mm 5 mps 758 mmHg 49%
11:00 +20°C° 0 mm 5 mps 757 mmHg 45%
12:00 +21°C° 0 mm 5 mps 756 mmHg 41%
13:00 +22°C° 0 mm 6 mps 755 mmHg 36%
14:00 +22°C° 0 mm 5 mps 755 mmHg 38%
15:00 +21°C° 0 mm 5 mps 755 mmHg 39%
16:00 +21°C° 0 mm 5 mps 755 mmHg 40%
17:00 +20°C° 0 mm 5 mps 756 mmHg 44%
18:00 +17°C° 0 mm 5 mps 756 mmHg 47%
19:00 +17°C° 0 mm 4 mps 757 mmHg 51%
20:00 +15°C° 0 mm 4 mps 757 mmHg 54%
21:00 +14°C° 0 mm 4 mps 758 mmHg 57%
22:00 +14°C° 0 mm 4 mps 758 mmHg 61%
23:00 +13°C° 0 mm 4 mps 758 mmHg 63%

Day after tomorrow, 17 August, Monday

Time Temperature Precipitation Wind Pressure Humidity
00:00 +13°C° 0 mm 4 mps 758 mmHg 65%
01:00 +12°C° 0 mm 4 mps 758 mmHg 68%
02:00 +12°C° 0 mm 4 mps 758 mmHg 69%
03:00 +12°C° 0 mm 4 mps 757 mmHg 69%
04:00 +11°C° 0 mm 4 mps 757 mmHg 70%
05:00 +11°C° 0 mm 4 mps 758 mmHg 71%
06:00 +11°C° 0 mm 4 mps 758 mmHg 71%
07:00 +11°C° 0 mm 4 mps 758 mmHg 71%
08:00 +13°C° 0 mm 4 mps 758 mmHg 61%
09:00 +15°C° 0 mm 4 mps 759 mmHg 51%
10:00 +18°C° 0 mm 4 mps 759 mmHg 42%
11:00 +19°C° 0 mm 4 mps 758 mmHg 38%
12:00 +20°C° 0 mm 3 mps 757 mmHg 34%
13:00 +22°C° 0 mm 3 mps 756 mmHg 30%
14:00 +21°C° 0 mm 3 mps 756 mmHg 31%
15:00 +21°C° 0 mm 3 mps 756 mmHg 32%
16:00 +21°C° 0 mm 3 mps 756 mmHg 34%
17:00 +19°C° 0 mm 3 mps 756 mmHg 39%
18:00 +18°C° 0 mm 3 mps 757 mmHg 44%
19:00 +16°C° 0 mm 3 mps 757 mmHg 49%
20:00 +14°C° 0 mm 3 mps 758 mmHg 52%
21:00 +13°C° 0 mm 3 mps 758 mmHg 55%
22:00 +13°C° 0 mm 3 mps 759 mmHg 57%
23:00 +12°C° 0 mm 3 mps 758 mmHg 59%

18 August, Tuesday

Time Temperature Precipitation Wind Pressure Humidity
00:00 +12°C° 0 mm 3 mps 758 mmHg 61%
01:00 +11°C° 0 mm 3 mps 758 mmHg 63%
02:00 +11°C° 0 mm 3 mps 757 mmHg 65%
03:00 +10°C° 0 mm 3 mps 757 mmHg 67%
04:00 +10°C° 0 mm 2 mps 757 mmHg 69%
05:00 +10°C° 0 mm 2 mps 758 mmHg 69%
06:00 +10°C° 0 mm 2 mps 758 mmHg 69%
07:00 +10°C° 0 mm 2 mps 758 mmHg 68%
08:00 +14°C° 0 mm 2 mps 758 mmHg 59%
09:00 +17°C° 0 mm 2 mps 758 mmHg 50%
10:00 +20°C° 0 mm 2 mps 758 mmHg 40%
11:00 +21°C° 0 mm 2 mps 757 mmHg 37%
12:00 +24°C° 0 mm 2 mps 756 mmHg 33%
13:00 +25°C° 0 mm 2 mps 756 mmHg 30%
14:00 +25°C° 0 mm 2 mps 755 mmHg 32%
15:00 +25°C° 0 mm 2 mps 755 mmHg 35%
16:00 +25°C° 0 mm 2 mps 755 mmHg 38%
17:00 +23°C° 0 mm 2 mps 755 mmHg 45%
18:00 +20°C° 0 mm 2 mps 755 mmHg 52%
19:00 +18°C° 0 mm 2 mps 755 mmHg 59%
20:00 +17°C° 0 mm 2 mps 756 mmHg 61%
21:00 +17°C° 0 mm 2 mps 756 mmHg 62%
22:00 +17°C° 0 mm 2 mps 756 mmHg 64%
23:00 +17°C° 0 mm 2 mps 755 mmHg 62%

19 August, Wednesday

Time Temperature Precipitation Wind Pressure Humidity
00:00 +17°C° 0 mm 2 mps 755 mmHg 61%
01:00 +17°C° 0 mm 2 mps 754 mmHg 59%
02:00 +18°C° 0 mm 1 mps 754 mmHg 59%
03:00 +16°C° 0 mm 1 mps 753 mmHg 59%
04:00 +16°C° 0 mm 1 mps 753 mmHg 59%
05:00 +17°C° 0 mm 2 mps 754 mmHg 57%
06:00 +17°C° 0 mm 3 mps 754 mmHg 56%
07:00 +17°C° 0 mm 3 mps 755 mmHg 55%
08:00 +19°C° 0 mm 4 mps 755 mmHg 49%
09:00 +20°C° 0 mm 5 mps 755 mmHg 43%
10:00 +22°C° 0 mm 5 mps 755 mmHg 37%
11:00 +23°C° 0 mm 6 mps 754 mmHg 34%
12:00 +23°C° 0 mm 6 mps 754 mmHg 31%
13:00 +24°C° 0 mm 6 mps 753 mmHg 28%
14:00 +24°C° 0 mm 6 mps 753 mmHg 28%
15:00 +23°C° 0 mm 5 mps 753 mmHg 29%
16:00 +23°C° 0 mm 5 mps 752 mmHg 29%
17:00 +21°C° 0 mm 4 mps 753 mmHg 33%
18:00 +20°C° 0 mm 4 mps 754 mmHg 36%
19:00 +18°C° 0 mm 3 mps 754 mmHg 40%
20:00 +17°C° 0 mm 3 mps 755 mmHg 41%
21:00 +17°C° 0 mm 3 mps 755 mmHg 43%
22:00 +16°C° 0 mm 3 mps 755 mmHg 44%
23:00 +16°C° 0 mm 3 mps 755 mmHg 44%

20 August, Thursday

Time Temperature Precipitation Wind Pressure Humidity
00:00 +15°C° 0 mm 4 mps 755 mmHg 43%
01:00 +14°C° 0 mm 4 mps 755 mmHg 42%
02:00 +14°C° 0 mm 4 mps 755 mmHg 43%
03:00 +14°C° 0 mm 4 mps 755 mmHg 45%
04:00 +13°C° 0 mm 5 mps 755 mmHg 46%
05:00 +13°C° 0 mm 4 mps 756 mmHg 48%
06:00 +13°C° 0 mm 4 mps 756 mmHg 50%
07:00 +13°C° 0 mm 4 mps 757 mmHg 52%
08:00 +14°C° 0 mm 5 mps 757 mmHg 48%
09:00 +16°C° 0 mm 6 mps 757 mmHg 44%
10:00 +17°C° 0 mm 6 mps 757 mmHg 39%
11:00 +19°C° 0 mm 6 mps 756 mmHg 36%
12:00 +20°C° 0 mm 7 mps 756 mmHg 33%
13:00 +21°C° 0 mm 7 mps 755 mmHg 30%
14:00 +21°C° 0 mm 6 mps 755 mmHg 30%
15:00 +21°C° 0 mm 6 mps 755 mmHg 31%
16:00 +21°C° 0 mm 6 mps 755 mmHg 31%
17:00 +19°C° 0 mm 6 mps 756 mmHg 35%
18:00 +17°C° 0 mm 5 mps 756 mmHg 39%
19:00 +15°C° 0 mm 5 mps 757 mmHg 43%
20:00 +14°C° 0 mm 5 mps 758 mmHg 45%
21:00 +14°C° 0 mm 5 mps 758 mmHg 48%
22:00 +13°C° 0 mm 5 mps 759 mmHg 51%
23:00 +13°C° 0 mm 5 mps 759 mmHg 53%
Show more